This is the latest recevied weather packets stored in our database for station/object N6DZK. If no packets are shown the sender has not sent any weather packets the latest 10 day(s).
| Time | Temp. | Humidity | Pressure | Rain* | Wind** | Luminosity | Snow |
|---|---|---|---|---|---|---|---|
| 1777230948 | 13.33° C | 77% | 1014.1 hPa | 0 mm | - | 257 W/m² | - |
| 1777230644 | 13.89° C | 77% | 1014.2 hPa | 0 mm | - | 227 W/m² | - |
| 1777230339 | 13.89° C | 81% | 1014.2 hPa | 0 mm | - | 189 W/m² | - |
| 1777230036 | 13.89° C | 80% | 1014.2 hPa | 0 mm | - | 243 W/m² | - |
| 1777229733 | 13.89° C | 79% | 1014.1 hPa | 0 mm | - | 224 W/m² | - |
| 1777229430 | 13.89° C | 75% | 1014.1 hPa | 0 mm | - | 189 W/m² | - |
| 1777229127 | 13.89° C | 75% | 1014 hPa | 0 mm | - | 166 W/m² | - |
| 1777228824 | 14.44° C | 74% | 1014.1 hPa | 0 mm | - | 153 W/m² | - |
| 1777228520 | 14.44° C | 72% | 1014 hPa | 0 mm | - | 143 W/m² | - |
| 1777228216 | 15° C | 72% | 1014 hPa | 0 mm | - | 180 W/m² | - |
| 1777227915 | 15° C | 72% | 1013.6 hPa | 0 mm | - | 238 W/m² | - |
| 1777227611 | 14.44° C | 73% | 1013.6 hPa | 0 mm | - | 272 W/m² | - |
| 1777227306 | 14.44° C | 74% | 1013.7 hPa | 0 mm | - | 212 W/m² | - |
| 1777227004 | 14.44° C | 76% | 1013.6 hPa | 0 mm | - | 243 W/m² | - |
| 1777226702 | 14.44° C | 78% | 1013.7 hPa | 0 mm | - | 253 W/m² | - |
| 1777226398 | 14.44° C | 78% | 1013.5 hPa | 0 mm | - | 278 W/m² | - |
| 1777226094 | 13.89° C | 77% | 1013.5 hPa | 0 mm | - | 259 W/m² | - |
| 1777225790 | 14.44° C | 78% | 1013.6 hPa | 0 mm | - | 220 W/m² | - |
| 1777225487 | 13.89° C | 79% | 1013.6 hPa | 0 mm | - | 191 W/m² | - |
| 1777225185 | 13.89° C | 79% | 1013.5 hPa | 0 mm | - | 261 W/m² | - |
| 1777224880 | 13.89° C | 79% | 1013.5 hPa | 0 mm | - | 310 W/m² | - |
| 1777224576 | 13.33° C | 80% | 1013.4 hPa | 0 mm | - | 194 W/m² | - |
* Rain latest hour (hover to see other rain measurements)
** Current wind speed in m/s (hover to see current wind gust speed)